Regional Weather Roundup
Issued by NWS Newport/Morehead, NC

Current Version | Previous Version | Graphics & Text | Print | Product List | Glossary Off
Versions: 1 2 3 4 5 6 7 8 9 10 11 12 13 14 15 16 17 18 19 20 21 22 23 24 25 26 27 28 29 30 31 32 33 34 35 36 37 38 39 40 41 42 43 44 45 46 47 48 49 50

000
ASUS42 KMHX 290925
RWRMHX
WEATHER ROUNDUP FOR EASTERN NORTH CAROLINA
NATIONAL WEATHER SERVICE NEWPORT/MOREHEAD CITY NC
500 AM EDT WED MAR 29 2017

NOTE: "FAIR" INDICATES FEW OR NO CLOUDS BELOW 12,000 FEET
WITH NO SIGNIFICANT WEATHER AND/OR OBSTRUCTIONS TO VISIBILITY

NCZ015>017-031-032-045>047-102-103-291000-
NORTH COAST

CITY           SKY/WX    TMP DP  RH WIND       PRES   REMARKS
EDENTON        CLEAR     56  55  96 CALM      29.95R FOG
ELIZABETH CITY PTCLDY    59  56  89 N9        29.94R
KITTY HAWK     NOT AVBL
MANTEO         CLEAR     57  56  97 NE12      29.93R

$$

NCZ045>047-081-094-103-104-291000-
CENTRAL COAST

CITY           SKY/WX    TMP DP  RH WIND       PRES   REMARKS
FRISCO         CLEAR     61  58  90 NW6       29.92R

$$

NCZ095-097-098-100-101-291000-
SOUTHERN COAST

CITY           SKY/WX    TMP DP  RH WIND       PRES   REMARKS
BEAUFORT       CLOUDY    63  63 100 NW7       29.93R
CEDAR ISLAND   NOT AVBL
JACKSONVILLE   MOCLDY    57  57 100 CALM      29.94R
PINEY ISLAND   PTSUNNY  N/A N/A N/A NW5       29.92R HAZE
WILMINGTON     PTCLDY    59  58  96 CALM      29.94R


$$

NCZ011>013-027>030-043-044-078>080-089-090>093-098-291000-
COASTAL PLAIN

CITY           SKY/WX    TMP DP  RH WIND       PRES   REMARKS
AHOSKIE          N/A     52  52  99 N3        29.96R
CLINTON        PTCLDY    61  55  80 CALM      29.95S
ELIZABETHTOWN  CLEAR     60  55  82 CALM      29.96R
GOLDSBORO      PTCLDY    59  59 100 CALM      29.94R
GREENVILLE     CLEAR     55  54  94 CALM      29.97R
HAVELOCK       MOCLDY    58  57  97 CALM      29.94R FOG
KENANSVILLE    CLOUDY    57  55  94 CALM      29.95R
KINSTON        PTCLDY    57  57 100 NW3       29.95S
NEW BERN       CLOUDY    54  54 100 NW3       29.94R FOG
RICHLANDS      MOCLDY    58  57  97 CALM      29.95R
ROCKY MOUNT    CLEAR     57  54  89 N5        29.96R
WASHINGTON     CLEAR     55  54  99 CALM      29.94R FOG
WHITEVILLE     MOCLDY    63  53  70 CALM      29.95R

$$

AMZ130-135-150-152-154-156-158-170-250-252-270-ANZ085-086-088-633-658-670-291000-
MARINE OBSERVATIONS

STATION/POSITION TIME  TEMP    WIND        PRES    WAVE   SWELL
                       AIR SEA DIR/SP/G            HT/PER HT/PER
                 (UTC) (F)     (DEG/KT/KT) (MB)    (FT/S) (FT/S)
CHESAPEAKE LIGHT NOT AVBL
64 E VA BEACH    0850   48 48   10/ 17/ 21 1013.3    4/10   3/10
DUCK             0900   52 47  360/ 14/ 15 1013.2
2 E DUCK         0900      49                N/A     2/ 9   2/11
OREGON INLET     0900   52 58  360/  9/ 11 1013.2
13E OREGON INLT  0848      52                N/A     4/10   3/10
HATTERAS CG      0900   60 63  320/  7/  8 1012.9
DIAMOND BUOY     0850   66 73  340/ 14/ 17 1012.6    5/10   3/10
CAPE LOOKOUT     0900   64     300/  6/  6 1013.0
BEAUFORT LAB     0900   61 62  230/  1/  2 1012.5
30 SE NEW RVR IN 0908   64     340/  8/ 12 1013.4
30 SE NEW RVR IN 0843      64                N/A     5/10   2/11
27 SE WRIGHTSVLE 0908   66 70  350/ 10/ 16 1012.3
5 SE WRIGHTSVLE  0908   60 59  350/  6/ 10 1013.5
225 S CAPE HAT   0850   71 72  230/ 14/ 16 1013.8    5/10   3/10
41 SE CHARLESTON 0850   68 71  250/ 14/ 16 1012.8    5/10   5/10

$$




USA.gov is the U.S. government's official web portal to all federal, state and local government web resources and services.